When you browse on this site, cookies collect data to enhance your experience and personalize the content and advertising you see.
Visit our Privacy Policy to learn more. By continuing to use the site, you agree to this use of cookies and data.
  • In Spain
  • List of Countries
  • For 7 days
  • Water Temperature
  • Weather Map
  • Weather Widgets
  • user-avatar
    Login

    Hourly Weather Oran

    Today, 11 December, Wednesday

    Time Temperature Precipitation Wind Pressure Humidity
    00:00 +13°C° 0 mm 3 mps 757 mmHg 84%
    01:00 +13°C° 0 mm 3 mps 757 mmHg 83%
    02:00 +12°C° 0 mm 3 mps 757 mmHg 82%
    03:00 +12°C° 0 mm 3 mps 756 mmHg 81%
    04:00 +12°C° 0 mm 3 mps 756 mmHg 79%
    05:00 +12°C° 0 mm 3 mps 756 mmHg 77%
    06:00 +12°C° 0 mm 3 mps 756 mmHg 74%
    07:00 +13°C° 0 mm 3 mps 756 mmHg 69%
    08:00 +14°C° 0 mm 4 mps 756 mmHg 63%
    09:00 +17°C° 0 mm 4 mps 757 mmHg 58%
    10:00 +17°C° 0 mm 6 mps 756 mmHg 57%
    11:00 +17°C° 0 mm 7 mps 756 mmHg 55%
    12:00 +18°C° 0 mm 9 mps 756 mmHg 53%
    13:00 +18°C° 0 mm 9 mps 755 mmHg 54%
    14:00 +18°C° 0 mm 10 mps 755 mmHg 54%
    15:00 +17°C° 0 mm 11 mps 754 mmHg 55%
    16:00 +16°C° 0 mm 9 mps 755 mmHg 61%
    17:00 +15°C° 0 mm 8 mps 755 mmHg 67%
    18:00 +15°C° 0 mm 7 mps 756 mmHg 73%
    19:00 +14°C° 0 mm 6 mps 756 mmHg 75%
    20:00 +14°C° 0 mm 6 mps 757 mmHg 77%
    21:00 +14°C° 0 mm 5 mps 757 mmHg 80%
    22:00 +14°C° 0 mm 4 mps 757 mmHg 83%
    23:00 +14°C° 0 mm 4 mps 757 mmHg 86%

    Tomorrow, 12 December, Thursday

    Time Temperature Precipitation Wind Pressure Humidity
    00:00 +13°C° 0 mm 3 mps 758 mmHg 89%
    01:00 +13°C° 0.1 mm 3 mps 757 mmHg 87%
    02:00 +13°C° 0.1 mm 3 mps 757 mmHg 86%
    03:00 +13°C° 0.1 mm 3 mps 757 mmHg 85%
    04:00 +13°C° 0 mm 3 mps 756 mmHg 86%
    05:00 +12°C° 0 mm 3 mps 756 mmHg 86%
    06:00 +12°C° 0 mm 4 mps 756 mmHg 87%
    07:00 +13°C° 0 mm 6 mps 756 mmHg 83%
    08:00 +12°C° 0 mm 8 mps 756 mmHg 78%
    09:00 +13°C° 0 mm 10 mps 756 mmHg 73%
    10:00 +13°C° 0 mm 11 mps 756 mmHg 68%
    11:00 +14°C° 0 mm 12 mps 755 mmHg 64%
    12:00 +14°C° 0 mm 13 mps 755 mmHg 59%
    13:00 +14°C° 0 mm 13 mps 755 mmHg 59%
    14:00 +14°C° 0 mm 12 mps 754 mmHg 59%
    15:00 +13°C° 0 mm 12 mps 754 mmHg 59%
    16:00 +13°C° 0 mm 11 mps 754 mmHg 63%
    17:00 +12°C° 0 mm 11 mps 755 mmHg 66%
    18:00 +12°C° 0 mm 11 mps 755 mmHg 70%
    19:00 +12°C° 0 mm 11 mps 755 mmHg 70%
    20:00 +12°C° 0 mm 11 mps 755 mmHg 71%
    21:00 +12°C° 0 mm 12 mps 755 mmHg 71%
    22:00 +12°C° 0 mm 12 mps 755 mmHg 72%
    23:00 +12°C° 0 mm 12 mps 755 mmHg 73%

    Day after tomorrow, 13 December, Friday

    Time Temperature Precipitation Wind Pressure Humidity
    00:00 +12°C° 0 mm 12 mps 755 mmHg 74%
    01:00 +13°C° 0 mm 13 mps 754 mmHg 75%
    02:00 +13°C° 0 mm 13 mps 754 mmHg 75%
    03:00 +13°C° 0 mm 14 mps 753 mmHg 75%
    04:00 +13°C° 0 mm 13 mps 753 mmHg 75%
    05:00 +13°C° 0 mm 13 mps 753 mmHg 75%
    06:00 +12°C° 0 mm 13 mps 753 mmHg 75%
    07:00 +13°C° 0 mm 12 mps 753 mmHg 75%
    08:00 +13°C° 0 mm 12 mps 754 mmHg 74%
    09:00 +13°C° 0 mm 12 mps 754 mmHg 73%
    10:00 +14°C° 0 mm 12 mps 754 mmHg 75%
    11:00 +14°C° 0 mm 13 mps 754 mmHg 76%
    12:00 +15°C° 0 mm 13 mps 753 mmHg 77%
    13:00 +15°C° 0 mm 13 mps 753 mmHg 78%
    14:00 +15°C° 0 mm 13 mps 753 mmHg 79%
    15:00 +15°C° 0 mm 13 mps 752 mmHg 79%
    16:00 +15°C° 0 mm 12 mps 753 mmHg 81%
    17:00 +14°C° 0 mm 11 mps 753 mmHg 83%
    18:00 +14°C° 0 mm 10 mps 754 mmHg 84%
    19:00 +15°C° 0 mm 9 mps 754 mmHg 85%
    20:00 +15°C° 0 mm 9 mps 754 mmHg 85%
    21:00 +13°C° 0 mm 9 mps 755 mmHg 85%
    22:00 +13°C° 0 mm 9 mps 755 mmHg 85%
    23:00 +13°C° 0 mm 9 mps 755 mmHg 86%

    14 December, Saturday

    Time Temperature Precipitation Wind Pressure Humidity
    00:00 +13°C° 0 mm 9 mps 755 mmHg 86%
    01:00 +13°C° 0 mm 8 mps 755 mmHg 86%
    02:00 +13°C° 0 mm 8 mps 755 mmHg 86%
    03:00 +12°C° 0 mm 8 mps 754 mmHg 86%
    04:00 +12°C° 0 mm 8 mps 755 mmHg 86%
    05:00 +12°C° 0 mm 7 mps 755 mmHg 87%
    06:00 +12°C° 0 mm 7 mps 755 mmHg 87%
    07:00 +14°C° 0 mm 7 mps 755 mmHg 83%
    08:00 +14°C° 0 mm 7 mps 755 mmHg 79%
    09:00 +15°C° 0 mm 7 mps 756 mmHg 74%
    10:00 +16°C° 0 mm 7 mps 755 mmHg 68%
    11:00 +17°C° 0 mm 7 mps 755 mmHg 61%
    12:00 +19°C° 0 mm 6 mps 755 mmHg 55%
    13:00 +19°C° 0 mm 6 mps 754 mmHg 55%
    14:00 +19°C° 0 mm 6 mps 754 mmHg 56%
    15:00 +19°C° 0 mm 5 mps 754 mmHg 56%
    16:00 +17°C° 0 mm 5 mps 754 mmHg 62%
    17:00 +17°C° 0 mm 4 mps 754 mmHg 69%
    18:00 +15°C° 0 mm 4 mps 754 mmHg 75%
    19:00 +14°C° 0 mm 4 mps 754 mmHg 78%
    20:00 +14°C° 0 mm 4 mps 754 mmHg 81%
    21:00 +14°C° 0 mm 4 mps 755 mmHg 84%
    22:00 +14°C° 0 mm 4 mps 754 mmHg 84%
    23:00 +13°C° 0 mm 4 mps 754 mmHg 85%

    15 December, Sunday

    Time Temperature Precipitation Wind Pressure Humidity
    00:00 +13°C° 0 mm 4 mps 754 mmHg 85%
    01:00 +13°C° 0 mm 4 mps 754 mmHg 85%
    02:00 +13°C° 0 mm 4 mps 754 mmHg 85%
    03:00 +13°C° 0 mm 3 mps 754 mmHg 85%
    04:00 +12°C° 0 mm 3 mps 753 mmHg 86%
    05:00 +12°C° 0 mm 3 mps 753 mmHg 88%
    06:00 +12°C° 0 mm 3 mps 753 mmHg 89%
    07:00 +13°C° 0 mm 3 mps 754 mmHg 86%
    08:00 +15°C° 0 mm 2 mps 754 mmHg 83%
    09:00 +16°C° 0 mm 2 mps 754 mmHg 81%
    10:00 +16°C° 0 mm 2 mps 754 mmHg 75%
    11:00 +17°C° 0 mm 2 mps 754 mmHg 70%
    12:00 +18°C° 0 mm 2 mps 754 mmHg 64%
    13:00 +18°C° 0 mm 2 mps 753 mmHg 63%
    14:00 +19°C° 0 mm 2 mps 753 mmHg 63%
    15:00 +19°C° 0 mm 2 mps 752 mmHg 62%
    16:00 +19°C° 0 mm 1 mps 752 mmHg 67%
    17:00 +18°C° 0 mm 1 mps 752 mmHg 73%
    18:00 +15°C° 0 mm 1 mps 752 mmHg 79%
    19:00 +15°C° 0 mm 1 mps 752 mmHg 79%
    20:00 +15°C° 0 mm 1 mps 752 mmHg 78%
    21:00 +15°C° 0 mm 1 mps 752 mmHg 78%
    22:00 +15°C° 0 mm 1 mps 752 mmHg 76%
    23:00 +13°C° 0 mm 0 mps 752 mmHg 75%

    16 December, Monday

    Time Temperature Precipitation Wind Pressure Humidity
    00:00 +13°C° 0 mm 0 mps 751 mmHg 74%
    01:00 +13°C° 0 mm 0 mps 751 mmHg 71%
    02:00 +14°C° 0 mm 1 mps 751 mmHg 68%
    03:00 +14°C° 0 mm 1 mps 750 mmHg 66%
    04:00 +14°C° 0 mm 1 mps 750 mmHg 61%
    05:00 +14°C° 0 mm 1 mps 750 mmHg 56%
    06:00 +14°C° 0 mm 1 mps 749 mmHg 51%
    07:00 +15°C° 0 mm 2 mps 749 mmHg 48%
    08:00 +16°C° 0 mm 2 mps 750 mmHg 45%
    09:00 +17°C° 0 mm 2 mps 750 mmHg 42%
    10:00 +19°C° 0 mm 3 mps 749 mmHg 38%
    11:00 +20°C° 0 mm 4 mps 749 mmHg 33%
    12:00 +22°C° 0 mm 4 mps 748 mmHg 28%
    13:00 +22°C° 0 mm 4 mps 748 mmHg 30%
    14:00 +22°C° 0 mm 4 mps 747 mmHg 32%
    15:00 +22°C° 0 mm 3 mps 746 mmHg 34%
    16:00 +21°C° 0 mm 3 mps 746 mmHg 36%
    17:00 +20°C° 0 mm 3 mps 746 mmHg 37%
    18:00 +19°C° 0 mm 3 mps 746 mmHg 39%
    19:00 +19°C° 0 mm 4 mps 746 mmHg 38%
    20:00 +19°C° 0 mm 4 mps 746 mmHg 37%
    21:00 +17°C° 0 mm 5 mps 746 mmHg 36%
    22:00 +17°C° 0 mm 6 mps 746 mmHg 38%
    23:00 +17°C° 0 mm 6 mps 746 mmHg 41%
    Show more